Location: Crescent
(42.8242°N, 73.7329°W)
Time: 05:04:47
(UTC+00:00)

A-11 Canister half - Pass Details

Date: 16 February 2026
Orbit: 1524 x 1683 km, 47.3° (Epoch: 14 March)

Event Time Altitude Azimuth Distance (km) Brightness Sun altitude
Rises 02:10:31 0° 288° (WNW) 4,677 12.4 -41.0°
Reaches altitude 10° 02:13:34 10° 290° (WNW) 3,693 11.6 -41.5°
Enters shadow 02:20:46 58° 307° (NW) 1,740 9.3 -42.6°
